Data supplied by UK-AIR on 30/3/2010
All Data GMT hour ending 
Status: R =Ratified P=Provisional,P*=As supplied
,,Market Harborough,,,,,,,,,,,,,,,,,,,,,,,
Date,time,"Carbon monoxide",status,unit,"Nitric oxide",status,unit,"Nitrogen dioxide",status,unit,"Nitrogen oxides as nitrogen dioxide",status,unit,"Ozone",status,unit
 
01-01-2009,01:00,0.23,R,mgm-3,0.0,R,ugm-3,30.4,R,ugm-3,30.4,R,ugm-3,14,R,ugm-3
01-01-2009,02:00,0.12,R,mgm-3,0.0,R,ugm-3,22.7,R,ugm-3,22.7,R,ugm-3,20,R,ugm-3
01-01-2009,03:00,0.12,R,mgm-3,0.0,R,ugm-3,21.8,R,ugm-3,21.8,R,ugm-3,18,R,ugm-3
01-01-2009,04:00,0.23,R,mgm-3,0.0,R,ugm-3,21.2,R,ugm-3,21.2,R,ugm-3,14,R,ugm-3
01-01-2009,05:00,0.23,R,mgm-3,0.0,R,ugm-3,23.1,R,ugm-3,23.1,R,ugm-3,12,R,ugm-3
01-01-2009,06:00,0.23,R,mgm-3,0.0,R,ugm-3,26.4,R,ugm-3,26.4,R,ugm-3,10,R,ugm-3
01-01-2009,07:00,0.23,R,mgm-3,0.0,R,ugm-3,28.3,R,ugm-3,28.3,R,ugm-3,8,R,ugm-3
01-01-2009,08:00,0.23,R,mgm-3,2.4,R,ugm-3,38.0,R,ugm-3,41.6,R,ugm-3,4,R,ugm-3
01-01-2009,09:00,0.23,R,mgm-3,11.1,R,ugm-3,42.8,R,ugm-3,59.8,R,ugm-3,4,R,ugm-3
01-01-2009,10:00,0.23,R,mgm-3,14.3,R,ugm-3,41.3,R,ugm-3,63.0,R,ugm-3,4,R,ugm-3
01-01-2009,11:00,0.23,R,mgm-3,13.5,R,ugm-3,38.6,R,ugm-3,59.2,R,ugm-3,6,R,ugm-3
01-01-2009,12:00,0.23,R,mgm-3,13.6,R,ugm-3,33.0,R,ugm-3,53.9,R,ugm-3,6,R,ugm-3
01-01-2009,13:00,0.23,R,mgm-3,13.5,R,ugm-3,30.6,R,ugm-3,51.2,R,ugm-3,6,R,ugm-3
01-01-2009,14:00,0.23,R,mgm-3,16.5,R,ugm-3,33.8,R,ugm-3,59.0,R,ugm-3,6,R,ugm-3
01-01-2009,15:00,0.23,R,mgm-3,12.4,R,ugm-3,32.9,R,ugm-3,51.8,R,ugm-3,6,R,ugm-3
01-01-2009,16:00,0.23,R,mgm-3,8.9,R,ugm-3,33.0,R,ugm-3,46.6,R,ugm-3,4,R,ugm-3
01-01-2009,17:00,0.23,R,mgm-3,4.8,R,ugm-3,32.7,R,ugm-3,39.9,R,ugm-3,4,R,ugm-3
01-01-2009,18:00,0.23,R,mgm-3,2.1,R,ugm-3,32.5,R,ugm-3,35.7,R,ugm-3,4,R,ugm-3
01-01-2009,19:00,0.23,R,mgm-3,0.3,R,ugm-3,28.3,R,ugm-3,28.7,R,ugm-3,8,R,ugm-3
01-01-2009,20:00,0.23,R,mgm-3,0.0,R,ugm-3,23.1,R,ugm-3,23.1,R,ugm-3,14,R,ugm-3
01-01-2009,21:00,0.23,R,mgm-3,0.0,R,ugm-3,21.8,R,ugm-3,21.8,R,ugm-3,16,R,ugm-3
01-01-2009,22:00,0.23,R,mgm-3,0.0,R,ugm-3,25.6,R,ugm-3,25.6,R,ugm-3,12,R,ugm-3
01-01-2009,23:00,0.23,R,mgm-3,0.0,R,ugm-3,23.9,R,ugm-3,23.9,R,ugm-3,14,R,ugm-3
01-01-2009,24:00,0.12,R,mgm-3,0.0,R,ugm-3,20.4,R,ugm-3,20.4,R,ugm-3,20,R,ugm-3
02-01-2009,01:00,0.35,R,mgm-3,0.0,R,ugm-3,17.2,R,ugm-3,17.2,R,ugm-3,28,R,ugm-3
02-01-2009,02:00,0.35,R,mgm-3,0.0,R,ugm-3,17.6,R,ugm-3,17.6,R,ugm-3,24,R,ugm-3
02-01-2009,03:00,0.35,R,mgm-3,0.0,R,ugm-3,16.8,R,ugm-3,16.8,R,ugm-3,26,R,ugm-3
02-01-2009,04:00,0.35,R,mgm-3,0.0,R,ugm-3,16.0,R,ugm-3,16.0,R,ugm-3,28,R,ugm-3
02-01-2009,05:00,0.35,R,mgm-3,0.0,R,ugm-3,20.8,R,ugm-3,20.8,R,ugm-3,20,R,ugm-3
02-01-2009,06:00,0.23,R,mgm-3,0.0,R,ugm-3,17.4,R,ugm-3,17.4,R,ugm-3,24,R,ugm-3
02-01-2009,07:00,0.23,R,mgm-3,0.0,R,ugm-3,12.6,R,ugm-3,12.6,R,ugm-3,30,R,ugm-3
02-01-2009,08:00,0.23,R,mgm-3,0.0,R,ugm-3,8.0,R,ugm-3,8.0,R,ugm-3,46,R,ugm-3
02-01-2009,09:00,0.23,R,mgm-3,0.0,R,ugm-3,6.5,R,ugm-3,6.5,R,ugm-3,54,R,ugm-3
02-01-2009,10:00,0.23,R,mgm-3,0.8,R,ugm-3,7.6,R,ugm-3,8.8,R,ugm-3,50,R,ugm-3
02-01-2009,11:00,0.23,R,mgm-3,0.8,R,ugm-3,8.8,R,ugm-3,9.9,R,ugm-3,50,R,ugm-3
02-01-2009,12:00,0.23,R,mgm-3,1.4,R,ugm-3,9.6,R,ugm-3,11.7,R,ugm-3,48,R,ugm-3
02-01-2009,13:00,0.23,R,mgm-3,1.0,R,ugm-3,6.3,R,ugm-3,7.8,R,ugm-3,60,R,ugm-3
02-01-2009,14:00,0.12,R,mgm-3,0.0,R,ugm-3,6.5,R,ugm-3,6.5,R,ugm-3,64,R,ugm-3
02-01-2009,15:00,0.12,R,mgm-3,0.0,R,ugm-3,6.9,R,ugm-3,6.9,R,ugm-3,64,R,ugm-3
02-01-2009,16:00,0.12,R,mgm-3,0.0,R,ugm-3,11.1,R,ugm-3,11.1,R,ugm-3,58,R,ugm-3
02-01-2009,17:00,0.12,R,mgm-3,0.0,R,ugm-3,6.7,R,ugm-3,6.7,R,ugm-3,60,R,ugm-3
02-01-2009,18:00,0.12,R,mgm-3,0.0,R,ugm-3,6.7,R,ugm-3,6.7,R,ugm-3,56,R,ugm-3
02-01-2009,19:00,0.23,R,mgm-3,0.0,R,ugm-3,8.2,R,ugm-3,8.2,R,ugm-3,52,R,ugm-3
02-01-2009,20:00,0.23,R,mgm-3,0.0,R,ugm-3,8.0,R,ugm-3,8.0,R,ugm-3,54,R,ugm-3
02-01-2009,21:00,0.23,R,mgm-3,0.0,R,ugm-3,9.2,R,ugm-3,9.2,R,ugm-3,54,R,ugm-3
02-01-2009,22:00,0.23,R,mgm-3,0.0,R,ugm-3,9.9,R,ugm-3,9.9,R,ugm-3,52,R,ugm-3
02-01-2009,23:00,0.23,R,mgm-3,0.0,R,ugm-3,8.2,R,ugm-3,8.2,R,ugm-3,54,R,ugm-3
02-01-2009,24:00,0.23,R,mgm-3,0.0,R,ugm-3,7.6,R,ugm-3,7.6,R,ugm-3,54,R,ugm-3
03-01-2009,01:00,0.12,R,mgm-3,0.0,R,ugm-3,9.6,R,ugm-3,9.6,R,ugm-3,54,R,ugm-3
03-01-2009,02:00,0.12,R,mgm-3,0.0,R,ugm-3,7.6,R,ugm-3,7.6,R,ugm-3,56,R,ugm-3
03-01-2009,03:00,0.12,R,mgm-3,0.0,R,ugm-3,6.7,R,ugm-3,6.7,R,ugm-3,56,R,ugm-3
03-01-2009,04:00,0.12,R,mgm-3,0.0,R,ugm-3,5.5,R,ugm-3,5.5,R,ugm-3,58,R,ugm-3
03-01-2009,05:00,0.12,R,mgm-3,0.0,R,ugm-3,3.6,R,ugm-3,3.6,R,ugm-3,62,R,ugm-3
03-01-2009,06:00,0.12,R,mgm-3,0.0,R,ugm-3,3.2,R,ugm-3,3.2,R,ugm-3,64,R,ugm-3
03-01-2009,07:00,0.12,R,mgm-3,0.0,R,ugm-3,3.1,R,ugm-3,3.1,R,ugm-3,66,R,ugm-3
03-01-2009,08:00,0.12,R,mgm-3,0.0,R,ugm-3,2.3,R,ugm-3,2.3,R,ugm-3,70,R,ugm-3
03-01-2009,09:00,0.12,R,mgm-3,0.0,R,ugm-3,1.1,R,ugm-3,1.1,R,ugm-3,72,R,ugm-3
03-01-2009,10:00,0.12,R,mgm-3,0.0,R,ugm-3,3.1,R,ugm-3,3.1,R,ugm-3,68,R,ugm-3
03-01-2009,11:00,0.12,R,mgm-3,0.0,R,ugm-3,3.8,R,ugm-3,3.8,R,ugm-3,68,R,ugm-3
03-01-2009,12:00,0.12,R,mgm-3,0.3,R,ugm-3,1.7,R,ugm-3,2.1,R,ugm-3,72,R,ugm-3
03-01-2009,13:00,0.12,R,mgm-3,0.0,R,ugm-3,0.6,R,ugm-3,0.6,R,ugm-3,76,R,ugm-3
03-01-2009,14:00,0.12,R,mgm-3,0.3,R,ugm-3,5.0,R,ugm-3,5.3,R,ugm-3,68,R,ugm-3
03-01-2009,15:00,0.23,R,mgm-3,1.1,R,ugm-3,24.3,R,ugm-3,26.0,R,ugm-3,42,R,ugm-3
03-01-2009,16:00,0.23,R,mgm-3,0.8,R,ugm-3,25.6,R,ugm-3,26.7,R,ugm-3,38,R,ugm-3
03-01-2009,17:00,0.23,R,mgm-3,0.0,R,ugm-3,39.3,R,ugm-3,39.3,R,ugm-3,24,R,ugm-3
03-01-2009,18:00,0.23,R,mgm-3,0.0,R,ugm-3,26.7,R,ugm-3,26.7,R,ugm-3,36,R,ugm-3
03-01-2009,19:00,0.23,R,mgm-3,0.0,R,ugm-3,12.2,R,ugm-3,12.2,R,ugm-3,50,R,ugm-3
03-01-2009,20:00,0.23,R,mgm-3,0.0,R,ugm-3,12.2,R,ugm-3,12.2,R,ugm-3,52,R,ugm-3
03-01-2009,21:00,0.23,R,mgm-3,0.0,R,ugm-3,27.1,R,ugm-3,27.1,R,ugm-3,32,R,ugm-3
03-01-2009,22:00,0.23,R,mgm-3,0.0,R,ugm-3,30.6,R,ugm-3,30.6,R,ugm-3,26,R,ugm-3
03-01-2009,23:00,0.23,R,mgm-3,0.0,R,ugm-3,22.7,R,ugm-3,22.7,R,ugm-3,36,R,ugm-3
03-01-2009,24:00,0.23,R,mgm-3,0.0,R,ugm-3,17.2,R,ugm-3,17.2,R,ugm-3,40,R,ugm-3
04-01-2009,01:00,0.23,R,mgm-3,0.0,R,ugm-3,26.2,R,ugm-3,26.2,R,ugm-3,28,R,ugm-3
04-01-2009,02:00,0.23,R,mgm-3,0.0,R,ugm-3,30.6,R,ugm-3,30.6,R,ugm-3,30,R,ugm-3
04-01-2009,03:00,0.35,R,mgm-3,0.0,R,ugm-3,45.5,R,ugm-3,45.5,R,ugm-3,18,R,ugm-3
04-01-2009,04:00,0.35,R,mgm-3,0.9,R,ugm-3,55.8,R,ugm-3,57.1,R,ugm-3,12,R,ugm-3
04-01-2009,05:00,0.46,R,mgm-3,7.1,R,ugm-3,63.2,R,ugm-3,74.1,R,ugm-3,4,R,ugm-3
04-01-2009,06:00,0.35,R,mgm-3,2.8,R,ugm-3,53.9,R,ugm-3,58.1,R,ugm-3,12,R,ugm-3
04-01-2009,07:00,0.35,R,mgm-3,0.0,R,ugm-3,32.9,R,ugm-3,32.9,R,ugm-3,24,R,ugm-3
04-01-2009,08:00,0.35,R,mgm-3,0.0,R,ugm-3,29.0,R,ugm-3,29.0,R,ugm-3,26,R,ugm-3
04-01-2009,09:00,0.35,R,mgm-3,1.0,R,ugm-3,32.5,R,ugm-3,34.0,R,ugm-3,20,R,ugm-3
04-01-2009,10:00,0.35,R,mgm-3,1.4,R,ugm-3,26.4,R,ugm-3,28.5,R,ugm-3,28,R,ugm-3
04-01-2009,11:00,0.35,R,mgm-3,1.9,R,ugm-3,25.6,R,ugm-3,28.5,R,ugm-3,28,R,ugm-3
04-01-2009,12:00,0.35,R,mgm-3,1.6,R,ugm-3,24.1,R,ugm-3,26.5,R,ugm-3,28,R,ugm-3
04-01-2009,13:00,0.35,R,mgm-3,2.0,R,ugm-3,24.4,R,ugm-3,27.5,R,ugm-3,28,R,ugm-3
04-01-2009,14:00,0.35,R,mgm-3,2.9,R,ugm-3,24.8,R,ugm-3,29.2,R,ugm-3,26,R,ugm-3
04-01-2009,15:00,0.35,R,mgm-3,3.9,R,ugm-3,30.8,R,ugm-3,36.7,R,ugm-3,20,R,ugm-3
04-01-2009,16:00,0.46,R,mgm-3,3.3,R,ugm-3,36.9,R,ugm-3,41.8,R,ugm-3,14,R,ugm-3
04-01-2009,17:00,0.46,R,mgm-3,1.0,R,ugm-3,42.2,R,ugm-3,43.7,R,ugm-3,8,R,ugm-3
04-01-2009,18:00,0.46,R,mgm-3,0.8,R,ugm-3,44.3,R,ugm-3,45.5,R,ugm-3,4,R,ugm-3
04-01-2009,19:00,0.46,R,mgm-3,2.8,R,ugm-3,46.2,R,ugm-3,50.4,R,ugm-3,4,R,ugm-3
04-01-2009,20:00,0.58,R,mgm-3,7.3,R,ugm-3,47.2,R,ugm-3,58.3,R,ugm-3,4,R,ugm-3
04-01-2009,21:00,0.58,R,mgm-3,8.1,R,ugm-3,46.0,R,ugm-3,58.4,R,ugm-3,4,R,ugm-3
04-01-2009,22:00,0.58,R,mgm-3,12.9,R,ugm-3,45.6,R,ugm-3,65.3,R,ugm-3,4,R,ugm-3
04-01-2009,23:00,0.58,R,mgm-3,7.8,R,ugm-3,43.5,R,ugm-3,55.4,R,ugm-3,6,R,ugm-3
04-01-2009,24:00,0.46,R,mgm-3,6.0,R,ugm-3,39.9,R,ugm-3,49.1,R,ugm-3,4,R,ugm-3
05-01-2009,01:00,0.46,R,mgm-3,0.5,R,ugm-3,35.0,R,ugm-3,35.7,R,ugm-3,6,R,ugm-3
05-01-2009,02:00,0.35,R,mgm-3,0.0,R,ugm-3,21.4,R,ugm-3,21.4,R,ugm-3,24,R,ugm-3
05-01-2009,03:00,0.23,R,mgm-3,0.0,R,ugm-3,18.0,R,ugm-3,18.0,R,ugm-3,28,R,ugm-3
05-01-2009,04:00,0.23,R,mgm-3,0.0,R,ugm-3,15.3,R,ugm-3,15.3,R,ugm-3,34,R,ugm-3
05-01-2009,05:00,0.23,R,mgm-3,0.0,R,ugm-3,10.9,R,ugm-3,10.9,R,ugm-3,42,R,ugm-3
05-01-2009,06:00,0.23,R,mgm-3,0.0,R,ugm-3,7.3,R,ugm-3,7.3,R,ugm-3,50,R,ugm-3
05-01-2009,07:00,0.12,R,mgm-3,0.0,R,ugm-3,4.8,R,ugm-3,4.8,R,ugm-3,62,R,ugm-3
05-01-2009,08:00,0.23,R,mgm-3,0.0,R,ugm-3,6.1,R,ugm-3,6.1,R,ugm-3,62,R,ugm-3
05-01-2009,09:00,0.23,R,mgm-3,0.0,R,ugm-3,9.2,R,ugm-3,9.2,R,ugm-3,58,R,ugm-3
05-01-2009,10:00,0.23,R,mgm-3,0.6,R,ugm-3,7.1,R,ugm-3,8.0,R,ugm-3,64,R,ugm-3
05-01-2009,11:00,0.23,R,mgm-3,0.8,R,ugm-3,7.4,R,ugm-3,8.6,R,ugm-3,70,R,ugm-3
05-01-2009,12:00,0.23,R,mgm-3,1.1,R,ugm-3,7.1,R,ugm-3,8.8,R,ugm-3,66,R,ugm-3
05-01-2009,13:00,0.12,R,mgm-3,0.6,R,ugm-3,7.4,R,ugm-3,8.4,R,ugm-3,64,R,ugm-3
05-01-2009,14:00,0.12,R,mgm-3,0.8,R,ugm-3,7.4,R,ugm-3,8.6,R,ugm-3,66,R,ugm-3
05-01-2009,15:00,0.12,R,mgm-3,0.0,R,ugm-3,5.9,R,ugm-3,5.9,R,ugm-3,66,R,ugm-3
05-01-2009,16:00,0.12,R,mgm-3,0.0,R,ugm-3,10.5,R,ugm-3,10.5,R,ugm-3,60,R,ugm-3
05-01-2009,17:00,0.12,R,mgm-3,0.0,R,ugm-3,10.7,R,ugm-3,10.7,R,ugm-3,58,R,ugm-3
05-01-2009,18:00,0.23,R,mgm-3,0.0,R,ugm-3,9.4,R,ugm-3,9.4,R,ugm-3,56,R,ugm-3
05-01-2009,19:00,0.23,R,mgm-3,0.0,R,ugm-3,9.7,R,ugm-3,9.7,R,ugm-3,58,R,ugm-3
05-01-2009,20:00,0.23,R,mgm-3,0.0,R,ugm-3,9.4,R,ugm-3,9.4,R,ugm-3,60,R,ugm-3
05-01-2009,21:00,0.23,R,mgm-3,0.0,R,ugm-3,7.3,R,ugm-3,7.3,R,ugm-3,60,R,ugm-3
05-01-2009,22:00,0.23,R,mgm-3,0.0,R,ugm-3,5.3,R,ugm-3,5.3,R,ugm-3,60,R,ugm-3
05-01-2009,23:00,0.23,R,mgm-3,0.0,R,ugm-3,5.9,R,ugm-3,5.9,R,ugm-3,60,R,ugm-3
05-01-2009,24:00,0.23,R,mgm-3,0.0,R,ugm-3,4.4,R,ugm-3,4.4,R,ugm-3,62,R,ugm-3
06-01-2009,01:00,0.12,R,mgm-3,0.0,R,ugm-3,4.4,R,ugm-3,4.4,R,ugm-3,68,R,ugm-3
06-01-2009,02:00,0.12,R,mgm-3,0.0,R,ugm-3,3.2,R,ugm-3,3.2,R,ugm-3,74,R,ugm-3
06-01-2009,03:00,0.12,R,mgm-3,0.0,R,ugm-3,3.2,R,ugm-3,3.2,R,ugm-3,68,R,ugm-3
06-01-2009,04:00,0.12,R,mgm-3,0.0,R,ugm-3,3.8,R,ugm-3,3.8,R,ugm-3,66,R,ugm-3
06-01-2009,05:00,0.23,R,mgm-3,0.0,R,ugm-3,4.4,R,ugm-3,4.4,R,ugm-3,64,R,ugm-3
06-01-2009,06:00,0.23,R,mgm-3,0.0,R,ugm-3,5.3,R,ugm-3,5.3,R,ugm-3,62,R,ugm-3
06-01-2009,07:00,0.23,R,mgm-3,0.0,R,ugm-3,6.7,R,ugm-3,6.7,R,ugm-3,58,R,ugm-3
06-01-2009,08:00,0.23,R,mgm-3,0.0,R,ugm-3,7.8,R,ugm-3,7.8,R,ugm-3,58,R,ugm-3
06-01-2009,09:00,0.23,R,mgm-3,0.3,R,ugm-3,11.1,R,ugm-3,11.5,R,ugm-3,56,R,ugm-3
06-01-2009,10:00,0.23,R,mgm-3,1.1,R,ugm-3,9.9,R,ugm-3,11.7,R,ugm-3,58,R,ugm-3
06-01-2009,11:00,0.23,R,mgm-3,2.4,R,ugm-3,11.3,R,ugm-3,14.9,R,ugm-3,56,R,ugm-3
06-01-2009,12:00,0.23,R,mgm-3,1.6,R,ugm-3,9.2,R,ugm-3,11.7,R,ugm-3,62,R,ugm-3
06-01-2009,13:00,0.23,R,mgm-3,1.5,R,ugm-3,7.4,R,ugm-3,9.7,R,ugm-3,62,R,ugm-3
06-01-2009,14:00,0.23,R,mgm-3,1.0,R,ugm-3,7.3,R,ugm-3,8.8,R,ugm-3,64,R,ugm-3
06-01-2009,15:00,0.23,R,mgm-3,0.8,R,ugm-3,7.4,R,ugm-3,8.6,R,ugm-3,62,R,ugm-3
06-01-2009,16:00,0.23,R,mgm-3,1.5,R,ugm-3,28.5,R,ugm-3,30.8,R,ugm-3,38,R,ugm-3
06-01-2009,17:00,0.23,R,mgm-3,1.0,R,ugm-3,45.8,R,ugm-3,47.4,R,ugm-3,18,R,ugm-3
06-01-2009,18:00,0.46,R,mgm-3,17.3,R,ugm-3,63.6,R,ugm-3,90.0,R,ugm-3,6,R,ugm-3
06-01-2009,19:00,0.46,R,mgm-3,22.8,R,ugm-3,65.3,R,ugm-3,100.1,R,ugm-3,4,R,ugm-3
06-01-2009,20:00,0.58,R,mgm-3,37.9,R,ugm-3,70.7,R,ugm-3,128.5,R,ugm-3,4,R,ugm-3
06-01-2009,21:00,0.58,R,mgm-3,43.6,R,ugm-3,70.9,R,ugm-3,137.5,R,ugm-3,4,R,ugm-3
06-01-2009,22:00,0.58,R,mgm-3,38.5,R,ugm-3,69.7,R,ugm-3,128.5,R,ugm-3,4,R,ugm-3
06-01-2009,23:00,0.58,R,mgm-3,19.8,R,ugm-3,69.1,R,ugm-3,99.3,R,ugm-3,4,R,ugm-3
06-01-2009,24:00,0.58,R,mgm-3,25.1,R,ugm-3,71.6,R,ugm-3,110.0,R,ugm-3,4,R,ugm-3
07-01-2009,01:00,0.46,R,mgm-3,18.4,R,ugm-3,70.1,R,ugm-3,98.2,R,ugm-3,4,R,ugm-3
07-01-2009,02:00,0.46,R,mgm-3,4.9,R,ugm-3,60.7,R,ugm-3,68.2,R,ugm-3,6,R,ugm-3
07-01-2009,03:00,0.35,R,mgm-3,1.1,R,ugm-3,50.2,R,ugm-3,52.0,R,ugm-3,14,R,ugm-3
07-01-2009,04:00,0.35,R,mgm-3,0.0,R,ugm-3,33.4,R,ugm-3,33.4,R,ugm-3,24,R,ugm-3
07-01-2009,05:00,0.23,R,mgm-3,0.0,R,ugm-3,24.4,R,ugm-3,24.4,R,ugm-3,30,R,ugm-3
07-01-2009,06:00,0.23,R,mgm-3,0.0,R,ugm-3,21.4,R,ugm-3,21.4,R,ugm-3,34,R,ugm-3
07-01-2009,07:00,0.23,R,mgm-3,0.0,R,ugm-3,22.0,R,ugm-3,22.0,R,ugm-3,32,R,ugm-3
07-01-2009,08:00,0.23,R,mgm-3,0.0,R,ugm-3,24.6,R,ugm-3,24.6,R,ugm-3,28,R,ugm-3
07-01-2009,09:00,0.23,R,mgm-3,0.6,R,ugm-3,25.4,R,ugm-3,26.4,R,ugm-3,30,R,ugm-3
07-01-2009,10:00,0.23,R,mgm-3,2.0,R,ugm-3,26.0,R,ugm-3,29.0,R,ugm-3,32,R,ugm-3
07-01-2009,11:00,0.23,R,mgm-3,4.0,R,ugm-3,30.2,R,ugm-3,36.3,R,ugm-3,30,R,ugm-3
07-01-2009,12:00,0.23,R,mgm-3,4.6,R,ugm-3,31.5,R,ugm-3,38.6,R,ugm-3,30,R,ugm-3
07-01-2009,13:00,0.23,R,mgm-3,5.5,R,ugm-3,31.5,R,ugm-3,39.9,R,ugm-3,28,R,ugm-3
07-01-2009,14:00,0.23,R,mgm-3,4.8,R,ugm-3,29.8,R,ugm-3,37.1,R,ugm-3,28,R,ugm-3
07-01-2009,15:00,0.23,R,mgm-3,3.9,R,ugm-3,33.4,R,ugm-3,39.3,R,ugm-3,26,R,ugm-3
07-01-2009,16:00,0.35,R,mgm-3,16.0,R,ugm-3,50.2,R,ugm-3,74.7,R,ugm-3,6,R,ugm-3
07-01-2009,17:00,0.35,R,mgm-3,6.1,R,ugm-3,52.3,R,ugm-3,61.7,R,ugm-3,4,R,ugm-3
07-01-2009,18:00,0.35,R,mgm-3,6.4,R,ugm-3,52.0,R,ugm-3,61.7,R,ugm-3,4,R,ugm-3
07-01-2009,19:00,0.35,R,mgm-3,6.4,R,ugm-3,52.0,R,ugm-3,61.7,R,ugm-3,4,R,ugm-3
07-01-2009,20:00,0.35,R,mgm-3,2.8,R,ugm-3,53.1,R,ugm-3,57.3,R,ugm-3,4,R,ugm-3
07-01-2009,21:00,0.35,R,mgm-3,4.4,R,ugm-3,57.3,R,ugm-3,64.0,R,ugm-3,4,R,ugm-3
07-01-2009,22:00,0.35,R,mgm-3,5.9,R,ugm-3,57.5,R,ugm-3,66.5,R,ugm-3,4,R,ugm-3
07-01-2009,23:00,0.35,R,mgm-3,15.3,R,ugm-3,59.2,R,ugm-3,82.5,R,ugm-3,4,R,ugm-3
07-01-2009,24:00,0.46,R,mgm-3,36.9,R,ugm-3,61.1,R,ugm-3,117.5,R,ugm-3,4,R,ugm-3
08-01-2009,01:00,0.46,R,mgm-3,46.6,R,ugm-3,56.9,R,ugm-3,128.2,R,ugm-3,4,R,ugm-3
08-01-2009,02:00,0.35,R,mgm-3,33.9,R,ugm-3,52.5,R,ugm-3,104.3,R,ugm-3,2,R,ugm-3
08-01-2009,03:00,0.35,R,mgm-3,13.4,R,ugm-3,49.5,R,ugm-3,69.9,R,ugm-3,4,R,ugm-3
08-01-2009,04:00,0.23,R,mgm-3,4.3,R,ugm-3,38.4,R,ugm-3,44.9,R,ugm-3,8,R,ugm-3
08-01-2009,05:00,0.23,R,mgm-3,0.3,R,ugm-3,28.3,R,ugm-3,28.7,R,ugm-3,12,R,ugm-3
08-01-2009,06:00,0.23,R,mgm-3,0.0,R,ugm-3,20.6,R,ugm-3,20.6,R,ugm-3,18,R,ugm-3
08-01-2009,07:00,0.23,R,mgm-3,0.0,R,ugm-3,18.3,R,ugm-3,18.3,R,ugm-3,20,R,ugm-3
08-01-2009,08:00,0.23,R,mgm-3,0.3,R,ugm-3,28.5,R,ugm-3,28.8,R,ugm-3,14,R,ugm-3
08-01-2009,09:00,0.23,R,mgm-3,2.1,R,ugm-3,33.6,R,ugm-3,36.9,R,ugm-3,10,R,ugm-3
08-01-2009,10:00,0.23,R,mgm-3,4.0,R,ugm-3,27.7,R,ugm-3,33.8,R,ugm-3,16,R,ugm-3
08-01-2009,11:00,0.23,R,mgm-3,3.9,R,ugm-3,26.9,R,ugm-3,32.9,R,ugm-3,22,R,ugm-3
08-01-2009,12:00,0.23,R,mgm-3,3.3,R,ugm-3,21.6,R,ugm-3,26.5,R,ugm-3,30,R,ugm-3
08-01-2009,13:00,0.23,R,mgm-3,1.5,R,ugm-3,15.3,R,ugm-3,17.6,R,ugm-3,40,R,ugm-3
08-01-2009,14:00,0.23,R,mgm-3,1.6,R,ugm-3,17.8,R,ugm-3,20.2,R,ugm-3,36,R,ugm-3
08-01-2009,15:00,0.23,R,mgm-3,2.1,R,ugm-3,24.4,R,ugm-3,27.7,R,ugm-3,28,R,ugm-3
08-01-2009,16:00,0.23,R,mgm-3,1.4,R,ugm-3,26.4,R,ugm-3,28.5,R,ugm-3,24,R,ugm-3
08-01-2009,17:00,0.23,R,mgm-3,0.4,R,ugm-3,33.0,R,ugm-3,33.6,R,ugm-3,16,R,ugm-3
08-01-2009,18:00,0.23,R,mgm-3,0.6,R,ugm-3,39.5,R,ugm-3,40.5,R,ugm-3,10,R,ugm-3
08-01-2009,19:00,0.23,R,mgm-3,0.3,R,ugm-3,24.8,R,ugm-3,25.2,R,ugm-3,30,R,ugm-3
08-01-2009,20:00,0.12,R,mgm-3,0.0,R,ugm-3,14.1,R,ugm-3,14.1,R,ugm-3,42,R,ugm-3
08-01-2009,21:00,0.12,R,mgm-3,0.0,R,ugm-3,12.2,R,ugm-3,12.2,R,ugm-3,44,R,ugm-3
08-01-2009,22:00,0.12,R,mgm-3,0.0,R,ugm-3,12.0,R,ugm-3,12.0,R,ugm-3,44,R,ugm-3
08-01-2009,23:00,0.12,R,mgm-3,0.0,R,ugm-3,9.7,R,ugm-3,9.7,R,ugm-3,48,R,ugm-3
08-01-2009,24:00,0.23,R,mgm-3,0.0,R,ugm-3,19.3,R,ugm-3,19.3,R,ugm-3,36,R,ugm-3
09-01-2009,01:00,0.12,R,mgm-3,0.0,R,ugm-3,17.0,R,ugm-3,17.0,R,ugm-3,40,R,ugm-3
09-01-2009,02:00,0.12,R,mgm-3,0.0,R,ugm-3,11.8,R,ugm-3,11.8,R,ugm-3,46,R,ugm-3
09-01-2009,03:00,0.12,R,mgm-3,0.0,R,ugm-3,11.7,R,ugm-3,11.7,R,ugm-3,46,R,ugm-3
09-01-2009,04:00,0.12,R,mgm-3,0.0,R,ugm-3,9.9,R,ugm-3,9.9,R,ugm-3,46,R,ugm-3
09-01-2009,05:00,0.12,R,mgm-3,0.0,R,ugm-3,9.9,R,ugm-3,9.9,R,ugm-3,46,R,ugm-3
09-01-2009,06:00,0.12,R,mgm-3,0.0,R,ugm-3,9.7,R,ugm-3,9.7,R,ugm-3,42,R,ugm-3
09-01-2009,07:00,0.12,R,mgm-3,0.0,R,ugm-3,12.8,R,ugm-3,12.8,R,ugm-3,42,R,ugm-3
09-01-2009,08:00,0.12,R,mgm-3,0.0,R,ugm-3,21.4,R,ugm-3,21.4,R,ugm-3,32,R,ugm-3
09-01-2009,09:00,0.23,R,mgm-3,0.6,R,ugm-3,25.8,R,ugm-3,26.7,R,ugm-3,26,R,ugm-3
09-01-2009,10:00,0.12,R,mgm-3,1.5,R,ugm-3,28.3,R,ugm-3,30.6,R,ugm-3,28,R,ugm-3
09-01-2009,11:00,0.23,R,mgm-3,2.9,R,ugm-3,29.8,R,ugm-3,34.2,R,ugm-3,26,R,ugm-3
09-01-2009,12:00,0.23,R,mgm-3,4.5,R,ugm-3,34.8,R,ugm-3,41.6,R,ugm-3,22,R,ugm-3
09-01-2009,13:00,0.23,R,mgm-3,3.9,R,ugm-3,28.7,R,ugm-3,34.6,R,ugm-3,32,R,ugm-3
09-01-2009,14:00,0.12,R,mgm-3,3.3,R,ugm-3,22.7,R,ugm-3,27.7,R,ugm-3,42,R,ugm-3
09-01-2009,15:00,0.12,R,mgm-3,2.9,R,ugm-3,23.9,R,ugm-3,28.3,R,ugm-3,38,R,ugm-3
09-01-2009,16:00,0.12,R,mgm-3,1.5,R,ugm-3,22.2,R,ugm-3,24.4,R,ugm-3,36,R,ugm-3
09-01-2009,17:00,0.23,R,mgm-3,0.0,R,ugm-3,23.1,R,ugm-3,23.1,R,ugm-3,36,R,ugm-3
09-01-2009,18:00,0.23,R,mgm-3,0.0,R,ugm-3,31.9,R,ugm-3,31.9,R,ugm-3,26,R,ugm-3
09-01-2009,19:00,0.23,R,mgm-3,0.8,R,ugm-3,47.9,R,ugm-3,49.1,R,ugm-3,10,R,ugm-3
09-01-2009,20:00,0.35,R,mgm-3,2.3,R,ugm-3,54.8,R,ugm-3,58.3,R,ugm-3,6,R,ugm-3
09-01-2009,21:00,0.35,R,mgm-3,1.5,R,ugm-3,56.7,R,ugm-3,59.0,R,ugm-3,6,R,ugm-3
09-01-2009,22:00,0.35,R,mgm-3,0.3,R,ugm-3,45.8,R,ugm-3,46.2,R,ugm-3,12,R,ugm-3
09-01-2009,23:00,0.35,R,mgm-3,0.3,R,ugm-3,47.4,R,ugm-3,47.8,R,ugm-3,10,R,ugm-3
09-01-2009,24:00,0.23,R,mgm-3,0.0,R,ugm-3,43.5,R,ugm-3,43.5,R,ugm-3,12,R,ugm-3
10-01-2009,01:00,0.35,R,mgm-3,11.9,R,ugm-3,65.5,R,ugm-3,83.7,R,ugm-3,4,R,ugm-3
10-01-2009,02:00,0.35,R,mgm-3,20.1,R,ugm-3,66.5,R,ugm-3,97.2,R,ugm-3,4,R,ugm-3
10-01-2009,03:00,0.35,R,mgm-3,21.5,R,ugm-3,63.6,R,ugm-3,96.5,R,ugm-3,4,R,ugm-3
10-01-2009,04:00,0.23,R,mgm-3,8.5,R,ugm-3,58.8,R,ugm-3,71.8,R,ugm-3,4,R,ugm-3
10-01-2009,05:00,0.35,R,mgm-3,8.4,R,ugm-3,57.5,R,ugm-3,70.3,R,ugm-3,4,R,ugm-3
10-01-2009,06:00,0.35,R,mgm-3,8.3,R,ugm-3,56.3,R,ugm-3,69.0,R,ugm-3,4,R,ugm-3
10-01-2009,07:00,0.23,R,mgm-3,0.9,R,ugm-3,42.8,R,ugm-3,44.1,R,ugm-3,12,R,ugm-3
10-01-2009,08:00,0.23,R,mgm-3,0.0,R,ugm-3,32.5,R,ugm-3,32.5,R,ugm-3,20,R,ugm-3
10-01-2009,09:00,0.23,R,mgm-3,0.6,R,ugm-3,25.6,R,ugm-3,26.5,R,ugm-3,26,R,ugm-3
10-01-2009,10:00,0.23,R,mgm-3,2.5,R,ugm-3,24.6,R,ugm-3,28.5,R,ugm-3,26,R,ugm-3
10-01-2009,11:00,0.23,R,mgm-3,3.5,R,ugm-3,23.9,R,ugm-3,29.2,R,ugm-3,28,R,ugm-3
10-01-2009,12:00,0.35,R,mgm-3,4.8,R,ugm-3,26.4,R,ugm-3,33.6,R,ugm-3,26,R,ugm-3
10-01-2009,13:00,0.35,R,mgm-3,4.0,R,ugm-3,26.2,R,ugm-3,32.3,R,ugm-3,26,R,ugm-3
10-01-2009,14:00,0.23,R,mgm-3,3.3,R,ugm-3,23.9,R,ugm-3,28.8,R,ugm-3,28,R,ugm-3
10-01-2009,15:00,0.23,R,mgm-3,2.0,R,ugm-3,22.5,R,ugm-3,25.6,R,ugm-3,28,R,ugm-3
10-01-2009,16:00,0.23,R,mgm-3,1.0,R,ugm-3,24.1,R,ugm-3,25.6,R,ugm-3,26,R,ugm-3
10-01-2009,17:00,0.35,R,mgm-3,0.3,R,ugm-3,30.9,R,ugm-3,31.3,R,ugm-3,20,R,ugm-3
10-01-2009,18:00,0.35,R,mgm-3,0.0,R,ugm-3,29.4,R,ugm-3,29.4,R,ugm-3,18,R,ugm-3
10-01-2009,19:00,0.35,R,mgm-3,0.0,R,ugm-3,23.9,R,ugm-3,23.9,R,ugm-3,24,R,ugm-3
10-01-2009,20:00,0.35,R,mgm-3,0.0,R,ugm-3,20.8,R,ugm-3,20.8,R,ugm-3,28,R,ugm-3
10-01-2009,21:00,0.35,R,mgm-3,0.0,R,ugm-3,20.2,R,ugm-3,20.2,R,ugm-3,30,R,ugm-3
10-01-2009,22:00,0.35,R,mgm-3,0.0,R,ugm-3,23.3,R,ugm-3,23.3,R,ugm-3,26,R,ugm-3
10-01-2009,23:00,0.35,R,mgm-3,0.0,R,ugm-3,22.5,R,ugm-3,22.5,R,ugm-3,26,R,ugm-3
10-01-2009,24:00,0.35,R,mgm-3,0.0,R,ugm-3,18.0,R,ugm-3,18.0,R,ugm-3,36,R,ugm-3
11-01-2009,01:00,0.23,R,mgm-3,0.0,R,ugm-3,11.5,R,ugm-3,11.5,R,ugm-3,44,R,ugm-3
11-01-2009,02:00,0.23,R,mgm-3,0.0,R,ugm-3,11.1,R,ugm-3,11.1,R,ugm-3,42,R,ugm-3
11-01-2009,03:00,0.23,R,mgm-3,0.0,R,ugm-3,13.2,R,ugm-3,13.2,R,ugm-3,42,R,ugm-3
11-01-2009,04:00,0.23,R,mgm-3,0.0,R,ugm-3,11.1,R,ugm-3,11.1,R,ugm-3,48,R,ugm-3
11-01-2009,05:00,0.12,R,mgm-3,0.0,R,ugm-3,7.8,R,ugm-3,7.8,R,ugm-3,54,R,ugm-3
11-01-2009,06:00,0.12,R,mgm-3,0.0,R,ugm-3,7.8,R,ugm-3,7.8,R,ugm-3,56,R,ugm-3
11-01-2009,07:00,0.12,R,mgm-3,0.0,R,ugm-3,7.8,R,ugm-3,7.8,R,ugm-3,56,R,ugm-3
11-01-2009,08:00,0.12,R,mgm-3,0.0,R,ugm-3,7.6,R,ugm-3,7.6,R,ugm-3,58,R,ugm-3
11-01-2009,09:00,0.12,R,mgm-3,0.0,R,ugm-3,6.7,R,ugm-3,6.7,R,ugm-3,60,R,ugm-3
11-01-2009,10:00,0.12,R,mgm-3,0.4,R,ugm-3,7.3,R,ugm-3,7.8,R,ugm-3,60,R,ugm-3
11-01-2009,11:00,0.23,R,mgm-3,0.4,R,ugm-3,6.7,R,ugm-3,7.3,R,ugm-3,62,R,ugm-3
11-01-2009,12:00,0.23,R,mgm-3,0.8,R,ugm-3,5.9,R,ugm-3,7.1,R,ugm-3,64,R,ugm-3
11-01-2009,13:00,0.23,R,mgm-3,0.4,R,ugm-3,7.1,R,ugm-3,7.6,R,ugm-3,64,R,ugm-3
11-01-2009,14:00,0.23,R,mgm-3,0.0,R,ugm-3,7.8,R,ugm-3,7.8,R,ugm-3,64,R,ugm-3
11-01-2009,15:00,0.23,R,mgm-3,0.0,R,ugm-3,6.7,R,ugm-3,6.7,R,ugm-3,68,R,ugm-3
11-01-2009,16:00,0.23,R,mgm-3,0.0,R,ugm-3,5.5,R,ugm-3,5.5,R,ugm-3,68,R,ugm-3
11-01-2009,17:00,0.23,R,mgm-3,0.0,R,ugm-3,4.8,R,ugm-3,4.8,R,ugm-3,70,R,ugm-3
11-01-2009,18:00,0.23,R,mgm-3,0.0,R,ugm-3,3.8,R,ugm-3,3.8,R,ugm-3,72,R,ugm-3
11-01-2009,19:00,0.23,R,mgm-3,0.0,R,ugm-3,3.2,R,ugm-3,3.2,R,ugm-3,70,R,ugm-3
11-01-2009,20:00,0.23,R,mgm-3,0.0,R,ugm-3,3.2,R,ugm-3,3.2,R,ugm-3,70,R,ugm-3
11-01-2009,21:00,0.12,R,mgm-3,0.0,R,ugm-3,3.2,R,ugm-3,3.2,R,ugm-3,70,R,ugm-3
11-01-2009,22:00,0.12,R,mgm-3,0.0,R,ugm-3,3.2,R,ugm-3,3.2,R,ugm-3,70,R,ugm-3
11-01-2009,23:00,0.12,R,mgm-3,0.0,R,ugm-3,2.9,R,ugm-3,2.9,R,ugm-3,70,R,ugm-3
11-01-2009,24:00,0.12,R,mgm-3,0.0,R,ugm-3,2.3,R,ugm-3,2.3,R,ugm-3,72,R,ugm-3
12-01-2009,01:00,0.12,R,mgm-3,0.0,R,ugm-3,3.6,R,ugm-3,3.6,R,ugm-3,72,R,ugm-3
12-01-2009,02:00,0.12,R,mgm-3,0.0,R,ugm-3,3.2,R,ugm-3,3.2,R,ugm-3,72,R,ugm-3
12-01-2009,03:00,0.12,R,mgm-3,0.0,R,ugm-3,3.6,R,ugm-3,3.6,R,ugm-3,72,R,ugm-3
12-01-2009,04:00,0.12,R,mgm-3,0.0,R,ugm-3,2.9,R,ugm-3,2.9,R,ugm-3,74,R,ugm-3
12-01-2009,05:00,0.12,R,mgm-3,0.0,R,ugm-3,2.3,R,ugm-3,2.3,R,ugm-3,74,R,ugm-3
12-01-2009,06:00,0.23,R,mgm-3,0.0,R,ugm-3,3.2,R,ugm-3,3.2,R,ugm-3,70,R,ugm-3
12-01-2009,07:00,0.23,R,mgm-3,0.0,R,ugm-3,3.2,R,ugm-3,3.2,R,ugm-3,70,R,ugm-3
12-01-2009,08:00,0.23,R,mgm-3,0.0,R,ugm-3,4.4,R,ugm-3,4.4,R,ugm-3,70,R,ugm-3
12-01-2009,09:00,0.23,R,mgm-3,0.0,R,ugm-3,5.0,R,ugm-3,5.0,R,ugm-3,68,R,ugm-3
12-01-2009,10:00,0.23,R,mgm-3,0.0,R,ugm-3,6.5,R,ugm-3,6.5,R,ugm-3,66,R,ugm-3
12-01-2009,11:00,0.23,R,mgm-3,0.0,R,ugm-3,7.1,R,ugm-3,7.1,R,ugm-3,66,R,ugm-3
12-01-2009,12:00,0.23,R,mgm-3,0.0,R,ugm-3,6.7,R,ugm-3,6.7,R,ugm-3,66,R,ugm-3
12-01-2009,13:00,0.23,R,mgm-3,0.0,R,ugm-3,5.5,R,ugm-3,5.5,R,ugm-3,66,R,ugm-3
12-01-2009,14:00,0.23,R,mgm-3,0.0,R,ugm-3,7.1,R,ugm-3,7.1,R,ugm-3,64,R,ugm-3
12-01-2009,15:00,0.23,R,mgm-3,0.0,R,ugm-3,6.7,R,ugm-3,6.7,R,ugm-3,64,R,ugm-3
12-01-2009,16:00,0.23,R,mgm-3,0.0,R,ugm-3,6.7,R,ugm-3,6.7,R,ugm-3,64,R,ugm-3
12-01-2009,17:00,0.23,R,mgm-3,0.0,R,ugm-3,7.6,R,ugm-3,7.6,R,ugm-3,60,R,ugm-3
12-01-2009,18:00,0.23,R,mgm-3,0.0,R,ugm-3,9.6,R,ugm-3,9.6,R,ugm-3,56,R,ugm-3
12-01-2009,19:00,0.23,R,mgm-3,0.0,R,ugm-3,12.6,R,ugm-3,12.6,R,ugm-3,50,R,ugm-3
12-01-2009,20:00,0.23,R,mgm-3,0.0,R,ugm-3,10.9,R,ugm-3,10.9,R,ugm-3,58,R,ugm-3
12-01-2009,21:00,0.23,R,mgm-3,0.0,R,ugm-3,9.6,R,ugm-3,9.6,R,ugm-3,60,R,ugm-3
12-01-2009,22:00,0.23,R,mgm-3,0.0,R,ugm-3,6.5,R,ugm-3,6.5,R,ugm-3,68,R,ugm-3
12-01-2009,23:00,0.12,R,mgm-3,0.0,R,ugm-3,7.1,R,ugm-3,7.1,R,ugm-3,66,R,ugm-3
12-01-2009,24:00,0.12,R,mgm-3,0.0,R,ugm-3,4.8,R,ugm-3,4.8,R,ugm-3,68,R,ugm-3
13-01-2009,01:00,0.12,R,mgm-3,0.0,R,ugm-3,6.3,R,ugm-3,6.3,R,ugm-3,66,R,ugm-3
13-01-2009,02:00,0.12,R,mgm-3,0.0,R,ugm-3,5.5,R,ugm-3,5.5,R,ugm-3,70,R,ugm-3
13-01-2009,03:00,0.12,R,mgm-3,0.0,R,ugm-3,4.4,R,ugm-3,4.4,R,ugm-3,72,R,ugm-3
13-01-2009,04:00,0.12,R,mgm-3,0.0,R,ugm-3,5.5,R,ugm-3,5.5,R,ugm-3,66,R,ugm-3
13-01-2009,05:00,0.12,R,mgm-3,0.0,R,ugm-3,9.9,R,ugm-3,9.9,R,ugm-3,58,R,ugm-3
13-01-2009,06:00,0.12,R,mgm-3,0.0,R,ugm-3,5.5,R,ugm-3,5.5,R,ugm-3,58,R,ugm-3
13-01-2009,07:00,0.12,R,mgm-3,0.0,R,ugm-3,6.7,R,ugm-3,6.7,R,ugm-3,54,R,ugm-3
13-01-2009,08:00,0.12,R,mgm-3,0.0,R,ugm-3,9.7,R,ugm-3,9.7,R,ugm-3,50,R,ugm-3
13-01-2009,09:00,0.12,R,mgm-3,0.3,R,ugm-3,12.2,R,ugm-3,12.6,R,ugm-3,46,R,ugm-3
13-01-2009,10:00,0.12,R,mgm-3,0.8,R,ugm-3,12.2,R,ugm-3,13.4,R,ugm-3,46,R,ugm-3
13-01-2009,11:00,0.12,R,mgm-3,1.4,R,ugm-3,12.0,R,ugm-3,14.1,R,ugm-3,46,R,ugm-3
13-01-2009,12:00,0.12,R,mgm-3,1.5,R,ugm-3,11.5,R,ugm-3,13.8,R,ugm-3,50,R,ugm-3
13-01-2009,13:00,0.23,R,mgm-3,1.4,R,ugm-3,9.9,R,ugm-3,12.0,R,ugm-3,54,R,ugm-3
13-01-2009,14:00,0.23,R,mgm-3,1.1,R,ugm-3,12.2,R,ugm-3,13.9,R,ugm-3,50,R,ugm-3